DAL1551 KLAX-KSEA

Flight info

Callsign DAL1551
Flight time 2h 1m
Altitude 36000
Route SUMMR2 SCTRR SNS RBL LMT BTG HAWKZ8
Aircraft B739/M-SDE2E3FGHIRWXY/LB1

Departure

Time 2026-04-21 05:47
Airport Los Angeles International Airport (KLAX)

Arrival

Time 2026-04-21 07:49
Airport Seattle–Tacoma International Airport (KSEA)
Time Latitude Longitude Altitude Speed Heading
2026-04-21 05:39 33.94641 -118.40547 94 ft 0 kts 352°
2026-04-21 05:41 33.94662 -118.40550 94 ft 8 kts 352°
2026-04-21 05:41 33.94722 -118.40559 95 ft 0 kts 353°
2026-04-21 05:43 33.94726 -118.40560 94 ft 2 kts 351°
2026-04-21 05:43 33.94752 -118.40572 95 ft 7 kts 337°
2026-04-21 05:43 33.94811 -118.40597 97 ft 11 kts 348°
2026-04-21 05:44 33.94869 -118.40549 99 ft 13 kts 78°
2026-04-21 05:44 33.94882 -118.40412 99 ft 19 kts 83°
2026-04-21 05:44 33.94900 -118.40242 99 ft 21 kts 83°
2026-04-21 05:44 33.94918 -118.40063 100 ft 22 kts 83°
2026-04-21 05:45 33.94949 -118.39928 100 ft 7 kts 37°
2026-04-21 05:45 33.94955 -118.39924 101 ft 0 kts 32°
2026-04-21 05:46 33.94974 -118.39915 102 ft 5 kts 17°
2026-04-21 05:46 33.95016 -118.39917 107 ft 8 kts 341°
2026-04-21 05:46 33.95035 -118.40012 108 ft 18 kts 263°
2026-04-21 05:46 33.94993 -118.40426 107 ft 95 kts 262°
2026-04-21 05:47 33.94891 -118.41469 139 ft 154 kts 263°
2026-04-21 05:47 33.94754 -118.42890 590 ft 184 kts 264°
2026-04-21 05:47 33.94608 -118.44566 1090 ft 219 kts 263°
2026-04-21 05:47 33.94410 -118.46516 1641 ft 245 kts 262°
2026-04-21 05:48 33.94248 -118.48561 2683 ft 244 kts 267°
2026-04-21 05:48 33.94180 -118.50598 3467 ft 246 kts 268°
2026-04-21 05:48 33.94109 -118.52770 3661 ft 276 kts 265°
2026-04-21 05:48 33.93931 -118.55137 4305 ft 280 kts 263°
2026-04-21 05:49 33.93746 -118.57356 5756 ft 257 kts 262°
2026-04-21 05:49 33.93562 -118.59487 6475 ft 267 kts 261°
2026-04-21 05:49 33.93372 -118.61777 7011 ft 275 kts 261°
2026-04-21 05:49 33.93194 -118.64032 8053 ft 264 kts 261°
2026-04-21 05:50 33.93025 -118.66249 8746 ft 272 kts 260°
2026-04-21 05:50 33.92838 -118.68544 9389 ft 278 kts 260°
2026-04-21 05:50 33.92659 -118.70877 10129 ft 280 kts 260°
2026-04-21 05:50 33.92487 -118.73090 10529 ft 294 kts 260°
2026-04-21 05:51 33.92286 -118.75642 10743 ft 315 kts 260°
2026-04-21 05:51 33.92079 -118.78300 11275 ft 322 kts 260°
2026-04-21 05:51 33.91869 -118.81000 11932 ft 326 kts 260°
2026-04-21 05:51 33.91668 -118.83722 12686 ft 328 kts 262°
2026-04-21 05:52 33.91678 -118.86482 13442 ft 332 kts 268°
2026-04-21 05:52 33.91804 -118.89274 14133 ft 337 kts 268°
2026-04-21 05:52 33.91934 -118.92107 14780 ft 340 kts 268°
2026-04-21 05:52 33.92039 -118.94972 15446 ft 344 kts 267°
2026-04-21 05:53 33.92128 -118.97822 16137 ft 347 kts 266°
2026-04-21 05:53 33.92276 -119.00739 16789 ft 354 kts 275°
2026-04-21 05:53 33.93135 -119.03582 17396 ft 371 kts 294°
2026-04-21 05:53 33.94501 -119.06243 18054 ft 376 kts 297°
2026-04-21 05:54 33.95916 -119.08882 18613 ft 381 kts 297°
2026-04-21 05:54 33.97327 -119.11540 19165 ft 383 kts 297°
2026-04-21 05:54 33.98624 -119.14026 19743 ft 384 kts 297°
2026-04-21 05:54 34.00039 -119.16764 20377 ft 385 kts 297°
2026-04-21 05:55 34.01691 -119.19341 20937 ft 397 kts 314°
2026-04-21 05:55 34.03932 -119.21345 21526 ft 403 kts 320°
2026-04-21 05:55 34.06139 -119.23188 22061 ft 406 kts 321°
2026-04-21 05:55 34.08466 -119.25132 22660 ft 408 kts 320°
2026-04-21 05:56 34.10800 -119.27097 23290 ft 409 kts 320°
2026-04-21 05:56 34.13121 -119.29068 23854 ft 409 kts 320°
2026-04-21 05:56 34.15451 -119.31062 24343 ft 411 kts 320°
2026-04-21 05:56 34.17788 -119.33071 24809 ft 414 kts 320°
2026-04-21 05:57 34.19793 -119.34800 25199 ft 416 kts 320°
2026-04-21 05:57 34.22160 -119.36845 25647 ft 419 kts 319°
2026-04-21 05:57 34.24544 -119.38905 26060 ft 423 kts 319°
2026-04-21 05:57 34.26939 -119.40975 26565 ft 423 kts 319°
2026-04-21 05:58 34.29229 -119.42954 27190 ft 420 kts 319°
2026-04-21 05:58 34.31600 -119.45002 27875 ft 416 kts 319°
2026-04-21 05:58 34.33948 -119.47035 28492 ft 414 kts 319°
2026-04-21 05:58 34.36286 -119.49062 29057 ft 414 kts 319°
2026-04-21 05:59 34.38626 -119.51092 29628 ft 413 kts 319°
2026-04-21 05:59 34.40856 -119.53026 30181 ft 412 kts 319°
2026-04-21 05:59 34.43163 -119.55085 30604 ft 412 kts 317°
2026-04-21 06:00 34.47677 -119.59341 31538 ft 409 kts 316°
2026-04-21 06:00 34.49902 -119.61466 31989 ft 407 kts 316°
2026-04-21 06:00 34.52128 -119.63587 32424 ft 406 kts 316°
2026-04-21 06:00 34.54349 -119.65699 32814 ft 406 kts 316°
2026-04-21 06:01 34.56575 -119.67810 33240 ft 405 kts 316°
2026-04-21 06:01 34.58792 -119.69909 33687 ft 403 kts 316°
2026-04-21 06:01 34.61000 -119.71998 34098 ft 402 kts 316°
2026-04-21 06:01 34.63207 -119.74087 34414 ft 402 kts 316°
2026-04-21 06:02 34.65411 -119.76175 34745 ft 401 kts 316°
2026-04-21 06:02 34.67579 -119.78229 35069 ft 400 kts 316°
2026-04-21 06:02 34.69772 -119.80308 35382 ft 399 kts 316°
2026-04-21 06:02 34.71959 -119.82383 35686 ft 398 kts 316°
2026-04-21 06:03 34.74138 -119.84452 36039 ft 397 kts 316°
2026-04-21 06:03 34.78513 -119.88612 36066 ft 399 kts 315°
2026-04-21 06:04 34.82885 -119.92772 36052 ft 397 kts 315°
2026-04-21 06:04 34.87232 -119.96915 36056 ft 396 kts 315°
2026-04-21 06:05 34.91562 -120.01056 36052 ft 395 kts 315°
2026-04-21 06:05 34.95889 -120.05191 36064 ft 396 kts 315°
2026-04-21 06:06 35.00227 -120.09339 36062 ft 396 kts 315°
2026-04-21 06:06 35.04574 -120.13506 36064 ft 398 kts 315°
2026-04-21 06:07 35.08922 -120.17679 36057 ft 399 kts 315°
2026-04-21 06:07 35.13292 -120.21879 36060 ft 399 kts 315°
2026-04-21 06:08 35.17657 -120.26075 36058 ft 400 kts 315°
2026-04-21 06:08 35.21868 -120.29954 36053 ft 402 kts 316°
2026-04-21 06:09 35.26365 -120.34029 36045 ft 403 kts 316°
2026-04-21 06:09 35.30825 -120.38095 36050 ft 402 kts 315°
2026-04-21 06:10 35.35309 -120.42201 36055 ft 403 kts 315°
2026-04-21 06:10 35.39796 -120.46319 36047 ft 403 kts 315°
2026-04-21 06:11 35.44278 -120.50439 36041 ft 403 kts 315°
2026-04-21 06:11 35.48763 -120.54568 36061 ft 403 kts 315°
2026-04-21 06:12 35.53247 -120.58698 36069 ft 404 kts 315°
2026-04-21 06:12 35.56942 -120.62000 36089 ft 414 kts 316°
2026-04-21 06:13 35.61688 -120.66174 36092 ft 425 kts 317°
2026-04-21 06:13 35.66508 -120.70422 36079 ft 437 kts 316°
2026-04-21 06:14 35.71506 -120.74843 36086 ft 447 kts 316°
2026-04-21 06:14 35.76600 -120.79363 36068 ft 456 kts 316°
2026-04-21 06:15 35.81551 -120.83765 36066 ft 465 kts 316°
2026-04-21 06:15 35.86846 -120.88479 36037 ft 472 kts 316°
2026-04-21 06:16 35.92165 -120.93218 36023 ft 472 kts 316°
2026-04-21 06:16 35.97442 -120.97928 36025 ft 473 kts 316°
2026-04-21 06:17 36.02668 -121.02604 36014 ft 472 kts 316°
2026-04-21 06:17 36.07985 -121.07371 36015 ft 472 kts 316°
2026-04-21 06:18 36.13291 -121.12137 36013 ft 471 kts 316°
2026-04-21 06:18 36.18588 -121.16904 36002 ft 471 kts 315°
2026-04-21 06:19 36.23798 -121.21592 36000 ft 471 kts 317°
2026-04-21 06:19 36.26672 -121.23639 35995 ft 483 kts 328°
2026-04-21 06:19 36.29849 -121.25101 36004 ft 491 kts 336°
2026-04-21 06:20 36.36696 -121.26466 35997 ft 505 kts 350°
2026-04-21 06:20 36.43729 -121.26913 35989 ft 508 kts 351°
2026-04-21 06:21 36.50796 -121.27339 35990 ft 509 kts 351°
2026-04-21 06:21 36.57884 -121.27829 35983 ft 511 kts 350°
2026-04-21 06:22 36.64983 -121.28353 35971 ft 513 kts 351°
2026-04-21 06:22 36.72023 -121.28879 35992 ft 514 kts 350°
2026-04-21 06:23 36.79180 -121.29425 35996 ft 516 kts 350°
2026-04-21 06:23 36.86362 -121.29970 35994 ft 518 kts 350°
2026-04-21 06:24 36.93560 -121.30515 35985 ft 519 kts 350°
2026-04-21 06:24 37.00793 -121.31058 35989 ft 522 kts 350°
2026-04-21 06:25 37.08048 -121.31600 35994 ft 523 kts 350°
2026-04-21 06:25 37.15329 -121.32141 35987 ft 524 kts 350°
2026-04-21 06:26 37.22616 -121.32700 35975 ft 524 kts 350°
2026-04-21 06:26 37.29906 -121.33258 35963 ft 525 kts 350°
2026-04-21 06:27 37.37152 -121.33812 35976 ft 525 kts 350°
2026-04-21 06:27 37.44456 -121.34368 35959 ft 526 kts 350°
2026-04-21 06:28 37.51769 -121.34925 35969 ft 526 kts 350°
2026-04-21 06:28 37.59066 -121.35481 35958 ft 526 kts 350°
2026-04-21 06:29 37.66372 -121.36042 35966 ft 526 kts 350°
2026-04-21 06:29 37.73483 -121.36589 35978 ft 526 kts 350°
2026-04-21 06:30 37.80802 -121.37153 35978 ft 528 kts 351°
2026-04-21 06:30 37.88141 -121.37719 35974 ft 529 kts 351°
2026-04-21 06:31 37.95502 -121.38288 36005 ft 530 kts 351°
2026-04-21 06:31 38.02875 -121.38859 35962 ft 532 kts 351°
2026-04-21 06:32 38.10232 -121.39430 35954 ft 533 kts 351°
2026-04-21 06:32 38.17569 -121.40000 35954 ft 534 kts 351°
2026-04-21 06:33 38.24870 -121.40568 35970 ft 534 kts 351°
2026-04-21 06:33 38.32304 -121.41148 35978 ft 535 kts 351°
2026-04-21 06:34 38.39728 -121.41729 35985 ft 535 kts 351°
2026-04-21 06:34 38.47161 -121.42311 35988 ft 535 kts 351°
2026-04-21 06:35 38.54584 -121.42894 36007 ft 535 kts 351°
2026-04-21 06:35 38.62019 -121.43480 36006 ft 536 kts 351°
2026-04-21 06:36 38.69463 -121.44067 35983 ft 536 kts 351°
2026-04-21 06:36 38.76755 -121.44643 35976 ft 537 kts 352°
2026-04-21 06:37 38.84213 -121.45234 35982 ft 537 kts 352°
2026-04-21 06:37 38.91674 -121.45826 35981 ft 537 kts 352°
2026-04-21 06:38 38.99157 -121.46420 35980 ft 538 kts 352°
2026-04-21 06:38 39.06628 -121.47016 35973 ft 538 kts 352°
2026-04-21 06:39 39.14119 -121.47615 35977 ft 539 kts 353°
2026-04-21 06:39 39.21601 -121.48214 35971 ft 539 kts 353°
2026-04-21 06:40 39.29090 -121.48814 35976 ft 540 kts 353°
2026-04-21 06:40 39.36588 -121.49417 35973 ft 540 kts 353°
2026-04-21 06:41 39.44086 -121.50021 35980 ft 540 kts 353°
2026-04-21 06:41 39.51582 -121.50625 35979 ft 540 kts 354°
2026-04-21 06:42 39.59080 -121.51231 35983 ft 540 kts 354°
2026-04-21 06:42 39.66581 -121.51840 35983 ft 540 kts 354°
2026-04-21 06:43 39.74017 -121.52409 36018 ft 541 kts 354°
2026-04-21 06:43 39.81539 -121.53013 35990 ft 542 kts 353°
2026-04-21 06:44 39.89069 -121.53659 35998 ft 543 kts 353°
2026-04-21 06:44 39.96616 -121.54292 35990 ft 543 kts 354°
2026-04-21 06:45 40.04069 -121.54903 35990 ft 543 kts 354°
2026-04-21 06:45 40.11501 -121.55514 35988 ft 542 kts 354°
2026-04-21 06:46 40.19026 -121.56138 36007 ft 541 kts 354°
2026-04-21 06:46 40.26555 -121.56758 35957 ft 541 kts 354°
2026-04-21 06:47 40.34060 -121.57369 35992 ft 541 kts 354°
2026-04-21 06:47 40.41573 -121.57993 35987 ft 541 kts 354°
2026-04-21 06:48 40.49070 -121.58619 35963 ft 541 kts 355°
2026-04-21 06:48 40.56521 -121.59239 35987 ft 539 kts 355°
2026-04-21 06:49 40.64024 -121.59865 35991 ft 540 kts 355°
2026-04-21 06:49 40.71550 -121.60494 35965 ft 542 kts 355°
2026-04-21 06:50 40.79087 -121.61126 35965 ft 543 kts 355°
2026-04-21 06:50 40.86636 -121.61764 35951 ft 545 kts 354°
2026-04-21 06:51 40.94209 -121.62399 35966 ft 546 kts 354°
2026-04-21 06:51 41.01818 -121.63041 35976 ft 549 kts 354°
2026-04-21 06:52 41.09454 -121.63687 35974 ft 550 kts 355°
2026-04-21 06:52 41.17114 -121.64336 35953 ft 552 kts 354°
2026-04-21 06:53 41.24658 -121.64977 35972 ft 552 kts 354°
2026-04-21 06:53 41.32265 -121.65796 35978 ft 551 kts 350°
2026-04-21 06:54 41.39832 -121.67287 35997 ft 549 kts 348°
2026-04-21 06:54 41.47368 -121.68933 35985 ft 548 kts 348°
2026-04-21 06:55 41.54907 -121.70500 36008 ft 548 kts 348°
2026-04-21 06:55 41.62457 -121.71998 35975 ft 548 kts 349°
2026-04-21 06:56 41.69991 -121.73474 35974 ft 547 kts 349°
2026-04-21 06:56 41.77524 -121.74960 35959 ft 547 kts 349°
2026-04-21 06:57 41.83788 -121.76202 35962 ft 547 kts 349°
2026-04-21 06:57 41.91321 -121.77702 35925 ft 547 kts 349°
2026-04-21 06:58 41.98852 -121.79208 35965 ft 547 kts 349°
2026-04-21 06:58 42.06380 -121.80712 35971 ft 547 kts 349°
2026-04-21 06:59 42.13861 -121.82211 35983 ft 547 kts 349°
2026-04-21 06:59 42.21447 -121.83735 35940 ft 548 kts 349°
2026-04-21 07:00 42.28988 -121.85255 35935 ft 548 kts 349°
2026-04-21 07:00 42.36474 -121.86767 35937 ft 547 kts 349°
2026-04-21 07:01 42.43998 -121.88289 35935 ft 546 kts 349°
2026-04-21 07:01 42.55267 -121.90577 35941 ft 546 kts 349°
2026-04-21 07:02 42.62779 -121.92107 35930 ft 546 kts 349°
2026-04-21 07:02 42.70292 -121.93641 35911 ft 545 kts 349°
2026-04-21 07:03 42.77744 -121.95166 35926 ft 544 kts 349°
2026-04-21 07:03 42.85222 -121.96700 35926 ft 542 kts 349°
2026-04-21 07:04 42.92675 -121.98232 35943 ft 542 kts 349°
2026-04-21 07:04 43.00124 -121.99768 35922 ft 541 kts 349°
2026-04-21 07:05 43.07558 -122.01304 35923 ft 540 kts 349°
2026-04-21 07:05 43.14990 -122.02844 35920 ft 540 kts 349°
2026-04-21 07:06 43.22405 -122.04384 35905 ft 539 kts 349°
2026-04-21 07:06 43.29827 -122.05929 35929 ft 539 kts 349°
2026-04-21 07:07 43.37244 -122.07478 35922 ft 539 kts 349°
2026-04-21 07:07 43.44671 -122.09031 35903 ft 540 kts 349°
2026-04-21 07:08 43.52095 -122.10589 35885 ft 540 kts 349°
2026-04-21 07:08 43.59530 -122.12152 35882 ft 540 kts 349°
2026-04-21 07:09 43.66911 -122.13707 35891 ft 541 kts 349°
2026-04-21 07:09 43.74305 -122.15265 35905 ft 541 kts 349°
2026-04-21 07:10 43.81743 -122.16849 35913 ft 542 kts 349°
2026-04-21 07:10 43.89205 -122.18422 35939 ft 541 kts 349°
2026-04-21 07:11 43.96656 -122.20010 35887 ft 541 kts 349°
2026-04-21 07:11 44.04084 -122.21619 35892 ft 540 kts 349°
2026-04-21 07:12 44.11518 -122.23199 35908 ft 540 kts 349°
2026-04-21 07:12 44.18959 -122.24786 35920 ft 541 kts 349°
2026-04-21 07:13 44.26408 -122.26389 35909 ft 542 kts 349°
2026-04-21 07:13 44.33862 -122.27999 35860 ft 543 kts 349°
2026-04-21 07:14 44.41316 -122.29612 35919 ft 541 kts 349°
2026-04-21 07:14 44.48770 -122.31227 35911 ft 541 kts 349°
2026-04-21 07:15 44.56213 -122.32844 35906 ft 541 kts 349°
2026-04-21 07:15 44.63639 -122.34461 35916 ft 540 kts 349°
2026-04-21 07:16 44.71069 -122.36084 35929 ft 540 kts 349°
2026-04-21 07:16 44.78338 -122.37679 35916 ft 538 kts 349°
2026-04-21 07:17 44.85721 -122.39297 35928 ft 537 kts 349°
2026-04-21 07:17 44.93106 -122.40924 35957 ft 537 kts 349°
2026-04-21 07:18 45.00469 -122.42550 35932 ft 535 kts 349°
2026-04-21 07:18 45.07771 -122.44165 35927 ft 534 kts 349°
2026-04-21 07:19 45.15109 -122.45795 35950 ft 534 kts 349°
2026-04-21 07:19 45.22429 -122.47422 35900 ft 533 kts 349°
2026-04-21 07:20 45.29753 -122.49056 35937 ft 533 kts 349°
2026-04-21 07:20 45.37075 -122.50694 35921 ft 533 kts 349°
2026-04-21 07:21 45.44407 -122.52338 35907 ft 533 kts 349°
2026-04-21 07:21 45.51730 -122.53984 35925 ft 533 kts 349°
2026-04-21 07:22 45.59049 -122.55634 35935 ft 532 kts 349°
2026-04-21 07:22 45.66352 -122.57284 35925 ft 531 kts 349°
2026-04-21 07:23 45.73422 -122.58886 35936 ft 530 kts 349°
2026-04-21 07:23 45.77081 -122.59728 35267 ft 536 kts 349°
2026-04-21 07:23 45.80752 -122.60618 34468 ft 537 kts 348°
2026-04-21 07:24 45.84454 -122.61539 33543 ft 541 kts 348°
2026-04-21 07:24 45.88168 -122.62470 32825 ft 538 kts 348°
2026-04-21 07:24 45.91843 -122.63387 32190 ft 534 kts 348°
2026-04-21 07:24 45.95488 -122.64292 31575 ft 530 kts 348°
2026-04-21 07:25 45.99062 -122.65176 30988 ft 526 kts 348°
2026-04-21 07:25 46.02655 -122.66066 30384 ft 523 kts 348°
2026-04-21 07:25 46.06231 -122.66951 29734 ft 520 kts 348°
2026-04-21 07:25 46.09788 -122.67831 29020 ft 514 kts 348°
2026-04-21 07:26 46.13281 -122.68620 28402 ft 503 kts 351°
2026-04-21 07:26 46.16714 -122.69278 27862 ft 492 kts 351°
2026-04-21 07:26 46.20102 -122.69899 27281 ft 488 kts 351°
2026-04-21 07:26 46.23455 -122.70527 26717 ft 485 kts 351°
2026-04-21 07:27 46.26751 -122.71166 26130 ft 481 kts 351°
2026-04-21 07:27 46.30052 -122.71821 25585 ft 477 kts 351°
2026-04-21 07:27 46.33334 -122.72427 25028 ft 474 kts 354°
2026-04-21 07:27 46.36624 -122.72700 24448 ft 472 kts 358°
2026-04-21 07:28 46.39898 -122.72770 23899 ft 469 kts
2026-04-21 07:28 46.43151 -122.72782 23277 ft 467 kts
2026-04-21 07:28 46.46384 -122.72809 22663 ft 463 kts
2026-04-21 07:28 46.49587 -122.72871 22065 ft 459 kts 359°
2026-04-21 07:29 46.52645 -122.72958 21544 ft 450 kts 359°
2026-04-21 07:29 46.55645 -122.73061 21020 ft 440 kts 359°
2026-04-21 07:29 46.58671 -122.73172 20475 ft 431 kts 359°
2026-04-21 07:29 46.61641 -122.73283 19965 ft 423 kts 359°
2026-04-21 07:30 46.64579 -122.73392 19476 ft 422 kts 359°
2026-04-21 07:30 46.67515 -122.73499 18961 ft 422 kts 359°
2026-04-21 07:30 46.70331 -122.73602 18467 ft 421 kts 359°
2026-04-21 07:30 46.73259 -122.73708 17915 ft 421 kts 359°
2026-04-21 07:31 46.76174 -122.73743 17476 ft 415 kts
2026-04-21 07:31 46.78900 -122.72801 17277 ft 394 kts 26°
2026-04-21 07:31 46.81207 -122.70841 16855 ft 376 kts 44°
2026-04-21 07:31 46.83223 -122.68439 16375 ft 373 kts 45°
2026-04-21 07:32 46.85204 -122.66010 15928 ft 372 kts 45°
2026-04-21 07:32 46.87191 -122.63682 15503 ft 372 kts 43°
2026-04-21 07:32 46.89232 -122.61361 15059 ft 371 kts 43°
2026-04-21 07:32 46.91255 -122.59074 14866 ft 362 kts 43°
2026-04-21 07:33 46.93235 -122.56856 14695 ft 355 kts 40°
2026-04-21 07:33 46.95466 -122.55293 14422 ft 359 kts 20°
2026-04-21 07:33 46.97842 -122.54330 14206 ft 352 kts 19°
2026-04-21 07:33 47.00181 -122.53377 13945 ft 346 kts 19°
2026-04-21 07:34 47.02485 -122.52403 13597 ft 343 kts 20°
2026-04-21 07:34 47.04767 -122.51414 13222 ft 341 kts 20°
2026-04-21 07:34 47.07031 -122.50423 12848 ft 338 kts 20°
2026-04-21 07:34 47.09308 -122.49605 12494 ft 337 kts 11°
2026-04-21 07:35 47.11623 -122.49208 12153 ft 335 kts
2026-04-21 07:35 47.13938 -122.48875 11788 ft 332 kts
2026-04-21 07:35 47.16230 -122.48503 11428 ft 330 kts
2026-04-21 07:35 47.18500 -122.48104 11056 ft 327 kts
2026-04-21 07:36 47.20756 -122.47724 10705 ft 325 kts
2026-04-21 07:36 47.22990 -122.47385 10359 ft 318 kts
2026-04-21 07:36 47.25164 -122.47062 10021 ft 310 kts
2026-04-21 07:36 47.27260 -122.46747 9688 ft 302 kts
2026-04-21 07:37 47.29326 -122.46435 9348 ft 295 kts
2026-04-21 07:37 47.31352 -122.46127 9033 ft 290 kts
2026-04-21 07:37 47.33345 -122.45822 8723 ft 287 kts
2026-04-21 07:37 47.35323 -122.45525 8420 ft 285 kts
2026-04-21 07:38 47.37204 -122.45441 8123 ft 280 kts
2026-04-21 07:38 47.39135 -122.45468 7828 ft 274 kts
2026-04-21 07:38 47.41022 -122.45497 7517 ft 268 kts
2026-04-21 07:38 47.42864 -122.45515 7250 ft 261 kts
2026-04-21 07:39 47.44662 -122.45527 6978 ft 256 kts
2026-04-21 07:39 47.46424 -122.45533 6718 ft 251 kts
2026-04-21 07:39 47.48168 -122.45535 6462 ft 249 kts
2026-04-21 07:39 47.49895 -122.45536 6173 ft 248 kts
2026-04-21 07:40 47.51552 -122.45539 5881 ft 244 kts
2026-04-21 07:40 47.53220 -122.45551 5547 ft 235 kts
2026-04-21 07:40 47.54290 -122.45564 5329 ft 230 kts
2026-04-21 07:40 47.55857 -122.45588 5064 ft 220 kts 360°
2026-04-21 07:41 47.57807 -122.45630 4804 ft 204 kts 359°
2026-04-21 07:41 47.59193 -122.45673 4653 ft 196 kts 359°
2026-04-21 07:41 47.60543 -122.45720 4534 ft 193 kts 359°
2026-04-21 07:41 47.61857 -122.45759 4446 ft 194 kts 359°
2026-04-21 07:42 47.62772 -122.45785 4398 ft 196 kts 359°
2026-04-21 07:42 47.64142 -122.45820 4335 ft 197 kts 359°
2026-04-21 07:42 47.65513 -122.45856 4285 ft 197 kts 359°
2026-04-21 07:42 47.66872 -122.45805 4244 ft 195 kts 14°
2026-04-21 07:43 47.67927 -122.44658 4241 ft 194 kts 63°
2026-04-21 07:43 47.68146 -122.42754 4228 ft 197 kts 97°
2026-04-21 07:43 47.67679 -122.40973 4111 ft 196 kts 128°
2026-04-21 07:43 47.66725 -122.39524 4007 ft 203 kts 135°
2026-04-21 07:44 47.65691 -122.38026 3864 ft 207 kts 135°
2026-04-21 07:44 47.64662 -122.36537 3736 ft 213 kts 135°
2026-04-21 07:44 47.63592 -122.34989 3583 ft 216 kts 135°
2026-04-21 07:44 47.62519 -122.33436 3430 ft 214 kts 135°
2026-04-21 07:45 47.61460 -122.31903 3281 ft 212 kts 135°
2026-04-21 07:45 47.60238 -122.30721 3110 ft 213 kts 167°
2026-04-21 07:45 47.58780 -122.30697 2896 ft 215 kts 183°
2026-04-21 07:45 47.57290 -122.30720 2598 ft 212 kts 178°
2026-04-21 07:46 47.55839 -122.30704 2320 ft 205 kts 179°
2026-04-21 07:46 47.54448 -122.30711 2057 ft 193 kts 180°
2026-04-21 07:46 47.53162 -122.30722 1812 ft 178 kts 181°
2026-04-21 07:46 47.51970 -122.30733 1600 ft 161 kts 181°
2026-04-21 07:47 47.50904 -122.30741 1353 ft 146 kts 181°
2026-04-21 07:47 47.49912 -122.30750 1180 ft 145 kts 180°
2026-04-21 07:47 47.48910 -122.30758 974 ft 142 kts 181°
2026-04-21 07:47 47.47918 -122.30753 802 ft 143 kts 183°
2026-04-21 07:48 47.46930 -122.30765 623 ft 140 kts 182°
2026-04-21 07:48 47.45955 -122.30773 432 ft 138 kts 183°
2026-04-21 07:48 47.45084 -122.30790 409 ft 109 kts 180°
2026-04-21 07:48 47.44451 -122.30795 391 ft 75 kts 181°
2026-04-21 07:49 47.44055 -122.30797 385 ft 42 kts 181°
2026-04-21 07:49 47.43904 -122.30739 379 ft 13 kts 104°
2026-04-21 07:49 47.43919 -122.30664 380 ft 8 kts 44°
2026-04-21 07:49 47.43971 -122.30629 382 ft 9 kts 33°
2026-04-21 07:50 47.43992 -122.30534 383 ft 13 kts 89°
2026-04-21 07:50 47.43992 -122.30392 385 ft 14 kts 84°
2026-04-21 07:50 47.44026 -122.30260 387 ft 14 kts 46°
2026-04-21 07:50 47.44108 -122.30197 390 ft 10 kts 31°
2026-04-21 07:51 47.44120 -122.30173 390 ft 3 kts 51°
2026-04-21 07:51 47.44135 -122.30151 391 ft 3 kts 43°
2026-04-21 07:51 47.44149 -122.30133 391 ft 1 kts 41°
2026-04-21 07:51 47.44150 -122.30133 391 ft 0 kts 41°